{"data":{"norad_id":58714,"intl_designator":"2024-002K","name":"STARLINK-31100","alt_names":[],"object_type":"PAYLOAD","status":"ACTIVE","operator":null,"country":"US","launch_date":"2024-01-03","launch_site_code":"AFWTR","launch_vehicle":null,"mission":null,"orbit_class":"UNKNOWN","rcs_meters":null,"size_class":null,"mass_kg":null,"dimensions":null,"purposes":["comms"],"wikipedia_slug":null,"has_3d_model":false,"image_url":null,"decayed_at":null,"tle_current":{"epoch":"2026-05-25T05:18:23.911776Z","epoch_age_seconds":52026,"freshness":"FRESH","line1":"1 58714U 24002K   26145.22111009  .00000700  00000+0  35765-4 0  9993","line2":"2 58714  53.1603 234.3820 0000717  99.4977 260.6105 15.30191731133735","mean_motion":15.30191731,"eccentricity":7.17e-5,"inclination_deg":53.1603,"raan_deg":234.382,"arg_perigee_deg":99.4977,"mean_anomaly_deg":260.6105,"bstar":3.5765e-5,"rev_number":13373,"period_min":94.105854242131,"perigee_km":474.74837216037,"apogee_km":475.73114638765,"semimajor_km":6853.376759274,"source":"CELESTRAK","updated_at":"2026-05-25T13:38:18.716593Z"}}}